Regional Weather Roundup
Issued by NWS

Home | Current Version | Previous Version | Graphics & Text | Print | Product List | Glossary On
Versions: 1 2 3 4 5 6 7 8 9 10 11 12 13 14 15 16 17 18 19 20 21 22 23 24 25 26 27 28 29 30 31 32 33 34 35 36 37 38 39 40 41 42 43 44 45 46 47 48 49 50
000
ASUS45 KBOU 300607
RWRCO

WEATHER ROUNDUP FOR COLORADO
NATIONAL WEATHER SERVICE DENVER/BOULDER CO
1200 AM MDT SUN AUG 30 2015

NOTE: "FAIR" INDICATES FEW OR NO CLOUDS BELOW 12000 FEET WITH NO
SIGNIFICANT WEATHER AND/OR OBSTRUCTIONS TO VISIBILITY.

COZ001>005-013-030-031-300700-
...NORTHWEST COLORADO...

CITY           SKY/WX    TMP DP  RH WIND       PRES   REMARKS
CRAIG          MOCLDY    57  43  59 SE3       30.18S
HAYDEN         NOT AVBL
MEEKER         PTCLDY    59  41  51 E5        30.20F
MOUNT WERNER   NOT AVBL
STEAMBOAT SPGS MOCLDY    56  39  52 CALM      30.24S
WALDEN         PTCLDY    46  36  66 CALM      30.33S
$$

COZ006>008-011-300700-
...WEST CENTRAL VALLEYS...

CITY           SKY/WX    TMP DP  RH WIND       PRES   REMARKS
GRAND JUNCTION PTCLDY    69  43  38 SE13      30.06S
MONTROSE       CLEAR     67  43  41 SE8       30.19S
EAGLE          CLEAR     59  43  55 S3        30.26S
RIFLE          PTCLDY    65  44  46 CALM      30.15S
DELTA          CLEAR     67  46  46 E6        30.14R
NUCLA          CLEAR     68  36  30 E10       30.23R
$$

COZ017>023-064>068-300700-
...SOUTHWEST COLORADO...

CITY           SKY/WX    TMP DP  RH WIND       PRES   REMARKS
DURANGO        CLEAR     60  45  57 N6        30.30R
CORTEZ         PTCLDY    58  44  60 MISG      30.20S
PAGOSA SPRINGS CLEAR     57  43  59 CALM      30.39S
TELLURIDE      CLEAR     56  42  59 SE7       30.48F
WOLF CREEK PAS PTCLDY    46  37  71 SW17G24   30.71S
$$

COZ009-010-012-014-032>034-037-058>063-300700-
...CENTRAL COLORADO...

CITY           SKY/WX    TMP DP  RH WIND       PRES   REMARKS
ASPEN          PTCLDY    56  38  50 S7        30.34S
BUENA VISTA    PTCLDY    56  39  52 CALM      30.38S
COPPER MTN     MOCLDY    55  28  35 S13       30.67S
BERTHOUD PASS  FAIR      45  32  61 W10       30.71S
COTTONWOOD PAS PTCLDY    61  32  33 CALM      30.51S
GUNNISON       CLEAR     55  37  50 N3        30.39S
KREMMLING      PTCLDY    54  41  62 CALM      30.32R
LEADVILLE      PTCLDY    45  33  63 CALM      30.50S
MONARCH PASS   PTCLDY    50  32  50 W13       30.77F
SALIDA         PTCLDY    64  41  43 CALM      30.41S
SUNLIGHT       PTCLDY    55  34  44 CALM      30.58F
WILKERSON PASS CLEAR     50  32  50 S8G16     30.64S
$$

COZ069>075-300700-
...SAN LUIS VALLEY/SANGRE DE CRISTO MOUNTAINS...

CITY           SKY/WX    TMP DP  RH WIND       PRES   REMARKS
ALAMOSA        PTCLDY    54  43  66 E8        30.34F
LA VETA PASS   CLEAR     52  39  62 MISG      30.52F
SAGUACHE       MOCLDY    61  43  51 E6        30.39F
$$

COZ035-036-038>040-300700-
...NORTHERN COLORADO FRONT RANGE...

CITY           SKY/WX    TMP DP  RH WIND       PRES   REMARKS
DENVER INTL AP PTCLDY    71  37  28 S17       30.12F
DMNS CITY PARK   N/A     74  38  26 SE13G18   30.11S
AURORA         PTCLDY    71  38  30 S22G29    30.14F
FRONT RANGE AP CLEAR     70  34  26 S15       30.15S
ERIE MUNI ARPT CLEAR     69  42  37 SW3       30.09F
BOULDER MUN AP CLEAR     70  43  37 CALM      30.10F
CENTENNIAL     PTCLDY    71  38  29 S17       30.17F
BROOMFIELD     CLEAR     72  41  33 S10       30.13F
FORT COLLINS   PTCLDY    68  45  42 SE7       30.10F
LONGMONT       PTCLDY    65  48  54 CALM      30.10F
$$

COZ041-046-047-076>085-087-088-300700-
...PIKES PEAK/PALMER DIVIDE AND SOUTHERN FOOTHILLS...

CITY           SKY/WX    TMP DP  RH WIND       PRES   REMARKS
COLO. SPRINGS  PTCLDY    64  37  36 E7        30.26F
A. F. ACADEMY  CLEAR     62  38  41 VRB1      30.27F
ELLICOTT       CLEAR    N/A N/A N/A S10       30.24F
FALCON         CLEAR     60  38  43 MISG      30.31S
FORT CARSON    CLEAR     65  40  40 NE6       30.22F
LIMON          CLEAR     56  42  59 SE8       30.20F
MONUMENT HILL  CLEAR     61  34  36 S15       30.28F
TRINIDAD       CLEAR     67  46  47 N3        30.24S
$$

COZ042>045-048>051-090-091-300700-
...NORTHEAST COLORADO...

CITY           SKY/WX    TMP DP  RH WIND       PRES   REMARKS
GREELEY ARPT   PTCLDY    64  45  48 CALM      30.10F
AKRON          CLEAR     69  40  34 S15G23    30.13S
BURLINGTON     CLEAR     61  45  55 SW9       30.16S
WRAY           CLEAR     70  42  36 S10       30.10S
STERLING       CLEAR     63  41  45 SW8       30.08S
HOLYOKE        CLEAR     61  46  59 S7        30.10R
FORT MORGAN    CLEAR     65  40  38 S7        30.11S
$$

COZ086-089-092>099-300700-
...SOUTHEAST COLORADO...

CITY           SKY/WX    TMP DP  RH WIND       PRES   REMARKS
PUEBLO         CLEAR     70  44  39 E3        30.12F
LA JUNTA       CLEAR     72  42  34 S7        30.14S
LAMAR          CLEAR     67  47  48 S10       30.11S
SPRINGFIELD    NOT AVBL
$$




USA.gov is the U.S. government's official web portal to all federal, state and local government web resources and services.